Location: Cuzcurrita-R�o Tir�n
(42.5415°N, 2.9642°W)
Time: 02:09:43
(UTC+00:00)

Cosmos 2279 Rocket - Pass Details

Date: 17 January 2021
Orbit: 963 x 979 km, 82.9° (Epoch: 08 March)

Event Time Altitude Azimuth Distance (km) Brightness Sun altitude
Rises 18:28:30 0° 351° (N) 3,692 7.0 -14.9°
Reaches altitude 10° 18:31:02 10° 351° (N) 2,740 6.3 -15.3°
Maximum altitude 18:37:20 86° 264° (W) 986 4.0 -16.5°
Drops below altitude 10° 18:43:34 10° 176° (S) 2,716 6.4 -17.6°
Sets 18:46:04 0° 176° (S) 3,658 7.1 -18.0°
